This is the latest recevied weather packets stored in our database for station/object DK4EP-10. If no packets are shown the sender has not sent any weather packets the latest 10 day(s).
| Time | Temp. | Humidity | Pressure | Rain* | Wind** | Luminosity | Snow |
|---|---|---|---|---|---|---|---|
| 1777806526 | 28.33° C | 36% | 991 hPa | - | - | - | - |
| 1777805624 | 27.78° C | 37% | 991 hPa | - | - | - | - |
| 1777804723 | 27.22° C | 38% | 991 hPa | - | - | - | - |
| 1777803821 | 27.22° C | 38% | 991 hPa | - | - | - | - |
| 1777802920 | 27.22° C | 38% | 991 hPa | - | - | - | - |
| 1777802021 | 26.67° C | 38% | 991 hPa | - | - | - | - |
| 1777801117 | 26.67° C | 38% | 992 hPa | - | - | - | - |
| 1777800216 | 27.22° C | 39% | 992 hPa | - | - | - | - |
| 1777799315 | 26.67° C | 40% | 992 hPa | - | - | - | - |
| 1777798414 | 26.67° C | 40% | 992 hPa | - | - | - | - |
| 1777797513 | 26.11° C | 38% | 992 hPa | - | - | - | - |
| 1777796612 | 26.11° C | 37% | 992 hPa | - | - | - | - |
| 1777795710 | 26.67° C | 38% | 992 hPa | - | - | - | - |
| 1777794809 | 25.56° C | 38% | 992 hPa | - | - | - | - |
| 1777793908 | 26.11° C | 38% | 992 hPa | - | - | - | - |
| 1777793007 | 25.56° C | 38% | 992 hPa | - | - | - | - |
| 1777792106 | 25° C | 41% | 992 hPa | - | - | - | - |
| 1777791205 | 24.44° C | 39% | 992 hPa | - | - | - | - |
| 1777790303 | 23.89° C | 39% | 992 hPa | - | - | - | - |
| 1777789402 | 23.33° C | 42% | 992 hPa | - | - | - | - |
| 1777788501 | 23.33° C | 40% | 992 hPa | - | - | - | - |
| 1777787600 | 22.22° C | 41% | 992 hPa | - | - | - | - |
| 1777786698 | 20.56° C | 43% | 992 hPa | - | - | - | - |
| 1777785797 | 19.44° C | 45% | 992 hPa | - | - | - | - |
| 1777784896 | 18.89° C | 46% | 992 hPa | - | - | - | - |
* Rain since midnight (hover to see other rain measurements)
** Current wind speed in m/s (hover to see current wind gust speed)